www.pogodaiklimat.ru

Погода и климат >> Архив погоды >> Норвегия >> Акселойа


ПОГОДА на Акселойа

  • Прогноз погоды на Акселойа
  • Монитор погоды на Акселойа

АРХИВ ПОГОДЫ на Акселойа

Время (UTC), дата Ветер
(напр.,м/с)
 
Видим.   Явления Облачность Т
(С)
Тd
(С)
f
(%)
Тe
(С)
Тes
(С)
Комфортность P
(гПа)
Po
(гПа)
Тmin
(С)
Tmax
(С)
R
(мм)
R24
(мм)
S
(см)
10 11.06 ЮЗ 5
{6}
н/о н/о +3.7 +0.8 81 -1 -1 1026.4 1025.5
11 11.06 ЮЗ 5
{7}
н/о н/о +3.7 +1.4 85 -1 -1 1026.5 1025.6
12 11.06 ЮЗ 5
{7}
н/о н/о +3.6 +1.2 84 -2 -2 1026.6 1025.8
13 11.06 ЮЗ 4
{6}
н/о н/о +3.9 +1.5 84 -1 -1 1026.5 1025.7
14 11.06 З 5
{7}
н/о н/о +3.5 +1.4 86 -2 -2 1026.6 1025.8
15 11.06 З 7
{8}
н/о н/о +2.8 +0.5 85 -3 -3 1026.6 1025.8
16 11.06 З 5
{7}
н/о н/о +2.6 +0.2 84 -3 -3 1026.6 1025.8
17 11.06 З 6
{7}
н/о н/о +2.5 +0.1 84 -3 -3 1026.5 1025.7
18 11.06 З 6
{8}
н/о н/о +2.5 -0.1 83 -3 -3 1026.5 1025.7 +2.3 +4.1
19 11.06 З 5
{6}
н/о н/о +1.9 -0.5 84 -4 -4 1026.4 1025.6
20 11.06 З 5
{7}
н/о н/о +1.7 -0.7 84 -4 -4 1026.4 1025.6
21 11.06 З 4
{7}
н/о н/о +1.8 -0.4 85 -3 -3 1026.7 1025.8
22 11.06 З 5
{6}
н/о н/о +1.5 -1.1 83 -4 -4 1026.6 1025.8
23 11.06 З 4
{6}
н/о н/о +1.3 -1.2 83 -4 -4 1026.6 1025.8
00 12.06 З 4
{7}
н/о н/о +1.1 -1.3 84 -4 -4 1026.7 1025.9
01 12.06 З 4
{5}
н/о н/о +0.9 -1.3 85 -4 -4 1026.7 1025.9
02 12.06 З 3
{4}
н/о н/о +1.1 -1.0 86 -3 -3 1026.8 1026.0
03 12.06 З 3
{4}
н/о н/о +1.0 -1.2 85 -3 -3 1026.8 1025.9
04 12.06 З 3
{4}
н/о н/о +1.1 -1.0 86 -3 -3 1026.9 1026.1
05 12.06 З 1
{3}
н/о н/о +1.4 -1.2 83 -0 -0 1027.0 1026.2
07 12.06 СЗ 1
{1}
н/о н/о +1.9 -1.2 80 0 0 1027.5 1026.6
08 12.06 СВ 1
{1}
н/о н/о +2.7 -0.7 78 +1 +1 1027.6 1026.8
09 12.06 СВ 2
{2}
н/о н/о +2.8 -0.8 77 -0 -0 1028.0 1027.2
10 12.06 СВ 2
{3}
н/о н/о +2.8 -0.3 80 -0 -0 1028.5 1027.7
11 12.06 СВ 2
{3}
н/о н/о +2.6 -0.7 79 -0 -0 1028.8 1028.0
12 12.06 СВ 1
{3}
н/о н/о +3.3 -0.7 75 +2 +2 1029.0 1028.2
13 12.06 штиль 0
{2}
н/о н/о +4.2 +0.4 76 +3 +3 1029.2 1028.4
14 12.06 З 1
{2}
н/о н/о +4.0 +0.2 76 +3 +3 1029.0 1028.2
15 12.06 З 2
{2}
н/о н/о +3.9 -0.1 75 +1 +1 1029.2 1028.3
16 12.06 З 2
{3}
н/о н/о +4.0 +0.2 76 +1 +1 1029.1 1028.3
17 12.06 З 4
{5}
н/о н/о +3.6 +0.7 81 -1 -1 1029.1 1028.3
18 12.06 З 3
{5}
н/о н/о +3.3 +0.2 80 -1 -1 1029.1 1028.3 +1.7 +4.2
19 12.06 З 2
{4}
н/о н/о +3.0 -0.1 80 0 0 1029.0 1028.2
20 12.06 З 4
{6}
н/о н/о +2.5 -0.6 80 -2 -2 1029.0 1028.2
21 12.06 З 4
{5}
н/о н/о +2.2 -0.2 84 -3 -3 1029.2 1028.4
22 12.06 З 5
{7}
н/о н/о +1.8 -0.3 86 -4 -4 1029.4 1028.5
00 13.06 З 5 н/о н/о +1.1 0.0 92 -5 -5 1029.1 1028.2
01 13.06 З 5
{8}
н/о н/о +0.8 -0.3 92 -5 -5 1028.6 1027.8
02 13.06 З 5
{6}
н/о н/о +1.0 -0.1 92 -5 -5 1028.3 1027.5
03 13.06 З 5
{7}
н/о н/о +1.0 -0.3 91 -5 -5 1027.9 1027.1
04 13.06 З 5
{6}
н/о н/о +1.2 -0.1 91 -5 -5 1027.7 1026.9
05 13.06 З 5
{7}
н/о н/о +1.4 0.0 90 -4 -4 1027.3 1026.5
06 13.06 З 5
{8}
н/о н/о +1.7 +0.2 90 -4 -4 1026.7 1025.9
07 13.06 З 4
{7}
н/о н/о +1.7 +0.2 90 -3 -3 1025.9 1025.1
08 13.06 ЮЗ 5
{6}
н/о н/о +2.2 +0.3 87 -3 -3 1025.5 1024.7
09 13.06 ЮЗ 5
{7}
н/о н/о +2.4 +0.9 90 -3 -3 1025.2 1024.4
10 13.06 ЮЗ 6
{8}
н/о н/о +2.5 +1.6 94 -4 -4 1025.0 1024.1
11 13.06 ЮЗ 7
{9}
н/о н/о +2.7 +1.1 89 -4 -4 1024.1 1023.2
12 13.06 ЮЗ 7
{9}
н/о н/о +3.0 +0.9 86 -3 -3 1023.6 1022.7
13 13.06 З 6
{9}
н/о н/о +2.9 +1.6 91 -3 -3 1023.1 1022.2
14 13.06 З 6
{8}
н/о н/о +2.9 +1.6 91 -3 -3 1022.6 1021.7
15 13.06 З 5
{8}
н/о н/о +2.8 +1.6 92 -3 -3 1022.4 1021.6
16 13.06 З 4
{6}
н/о н/о +2.8 +2.2 96 -2 -2 1021.9 1021.0
17 13.06 З 3
{5}
н/о н/о +2.8 +2.2 96 -1 -1 1021.6 1020.8
18 13.06 З 3
{9}
н/о н/о +2.7 +1.8 94 -2 -2 1021.5 1020.6 +1.6 +3.0
19 13.06 З 2
{4}
н/о н/о +2.8 +1.9 94 -1 -1 1020.9 1020.1
20 13.06 З 2
{4}
н/о н/о +2.8 +1.8 93 -0 -0 1021.2 1020.4
21 13.06 З 2
{4}
н/о н/о +2.7 +2.0 95 -1 -1 1021.1 1020.3
22 13.06 З 2
{3}
н/о н/о +2.7 +1.4 91 -1 -1 1021.0 1020.2
23 13.06 З 2
{3}
н/о н/о +2.7 +1.2 90 -1 -1 1020.9 1020.1
00 14.06 З 4
{6}
н/о н/о +2.5 +1.2 91 -2 -2 1020.7 1019.9
01 14.06 З 5
{6}
н/о н/о +2.2 +1.2 93 -3 -3 1020.4 1019.6
02 14.06 З 5
{6}
н/о н/о +1.8 +1.1 95 -4 -4 1020.2 1019.3
03 14.06 З 4
{7}
н/о н/о +1.7 +1.0 95 -4 -4 1020.0 1019.2
04 14.06 З 6
{7}
н/о н/о +1.6 +1.2 97 -5 -5 1019.6 1018.8
05 14.06 З 7
{8}
н/о н/о +1.5 +1.1 97 -5 -5 1019.5 1018.7
06 14.06 З 7
{9}
н/о н/о +1.6 +1.2 97 -5 -5 1019.4 1018.6 +1.4 +2.9
07 14.06 З 6
{9}
н/о н/о +1.7 +1.3 97 -5 -5 1019.8 1019.0
08 14.06 З 6
{7}
н/о н/о +1.7 +1.3 97 -5 -5 1019.9 1019.1
09 14.06 З 5
{7}
н/о н/о +1.8 +1.4 97 -4 -4 1020.1 1019.3
10 14.06 З 4
{6}
н/о н/о +2.1 +1.4 95 -3 -3 1020.4 1019.6
11 14.06 З 4
{5}
н/о н/о +2.5 +1.6 94 -3 -3 1020.5 1019.7
12 14.06 З 5
{9}
н/о н/о +2.1 +1.4 95 -4 -4 1020.3 1019.5
13 14.06 З 4
{7}
н/о н/о +2.0 +1.4 96 -3 -3 1020.0 1019.2
14 14.06 З 7
{8}
н/о н/о +1.8 +1.4 97 -5 -5 1019.7 1018.9
15 14.06 З 7
{9}
н/о н/о +1.7 +1.3 97 -5 -5 1019.6 1018.8
16 14.06 З 6
{8}
н/о н/о +1.7 +1.3 97 -5 -5 1019.6 1018.7
17 14.06 З 6
{8}
н/о н/о +1.3 +0.9 97 -5 -5 1019.2 1018.3
18 14.06 З 5
{9}
н/о н/о +1.1 +0.8 98 -5 -5 1018.7 1017.8 +1.0 +2.6
19 14.06 З 4
{5}
н/о н/о +1.4 +1.3 99 -4 -4 1017.8 1017.0
20 14.06 З 5
{6}
н/о н/о +1.3 +1.2 99 -5 -5 1017.0 1016.2
21 14.06 З 4
{5}
н/о н/о +2.0 +1.9 99 -3 -3 1016.4 1015.6
22 14.06 З 4
{6}
н/о н/о +2.2 +2.1 99 -3 -3 1016.2 1015.3
23 14.06 З 5
{7}
н/о н/о +2.3 +2.2 99 -3 -3 1015.6 1014.7
00 15.06 З 5
{7}
н/о н/о +2.3 +2.2 99 -3 -3 1015.0 1014.2
01 15.06 З 6
{7}
н/о н/о +2.3 +2.2 99 -4 -4 1013.8 1013.0
02 15.06 З 6
{7}
н/о н/о +2.2 +2.1 99 -4 -4 1013.1 1012.3
03 15.06 З 4
{8}
н/о н/о +2.3 +2.2 99 -3 -3 1012.7 1011.9
04 15.06 З 6
{7}
н/о н/о +2.2 +2.1 99 -4 -4 1012.4 1011.5
05 15.06 З 5
{8}
н/о н/о +2.2 +2.1 99 -4 -4 1011.7 1010.9
06 15.06 З 4
{8}
н/о н/о +2.3 +2.2 99 -3 -3 1011.5 1010.7 +1.0 +2.4
07 15.06 З 5
{5}
н/о н/о +2.3 +2.2 99 -3 -3 1011.4 1010.6
08 15.06 З 4
{6}
н/о н/о +2.5 +2.2 98 -3 -3 1011.5 1010.7
09 15.06 ЮЗ 5
{7}
н/о н/о +3.2 +2.8 97 -2 -2 1011.4 1010.6
10 15.06 ЮЗ 7
{8}
н/о н/о +3.2 +2.6 96 -3 -3 1011.8 1011.0
11 15.06 Ю 4
{9}
н/о н/о +5.6 +3.5 86 +2 +2 1011.9 1011.0
12 15.06 З 6
{9}
н/о н/о +5.9 +2.7 80 +1 +1 1012.3 1011.5
13 15.06 З 4
{8}
н/о н/о +5.9 +2.9 81 +2 +2 1012.3 1011.5
14 15.06 З 4
{7}
н/о н/о +5.5 +3.2 85 +2 +2 1012.3 1011.5
15 15.06 СЗ 6
{9}
н/о н/о +5.5 +3.0 84 +1 +1 1012.0 1011.2
16 15.06 СЗ 7
{9}
н/о н/о +5.1 +2.6 84 -0 -0 1012.0 1011.2
17 15.06 СЗ 5
{10}
н/о н/о +5.7 +1.5 74 +1 +1 1012.2 1011.4
18 15.06 СЗ 5
{10}
н/о н/о +5.3 +1.1 74 +1 +1 1012.5 1011.7 +2.2 +7.1
19 15.06 СЗ 4
{7}
н/о н/о +5.7 +1.1 72 +2 +2 1012.9 1012.1
20 15.06 З 3
{5}
н/о н/о +4.9 +0.9 75 +2 +2 1013.1 1012.3
21 15.06 СЗ 4
{7}
н/о н/о +4.8 0.0 71 +1 +1 1013.1 1012.3
22 15.06 СЗ 7
{9}
н/о н/о +3.1 +0.7 84 -3 -3 1013.2 1012.4
23 15.06 СЗ 7
{9}
н/о н/о +3.0 +0.2 82 -3 -3 1013.6 1012.8
00 16.06 СЗ 7
{11}
н/о н/о +2.5 +0.1 84 -4 -4 1013.5 1012.6
01 16.06 СЗ 6
{8}
н/о н/о +2.7 +0.3 84 -3 -3 1013.5 1012.7
02 16.06 СЗ 8
{10}
н/о н/о +2.6 +0.5 86 -4 -4 1013.3 1012.5
03 16.06 СЗ 7
{9}
н/о н/о +2.9 +0.5 84 -3 -3 1012.8 1012.0
04 16.06 СЗ 8
{11}
н/о н/о +3.0 +0.4 83 -4 -4 1012.9 1012.1
05 16.06 СЗ 7
{12}
н/о н/о +3.2 +0.4 82 -3 -3 1012.4 1011.5
06 16.06 СЗ 8
{12}
н/о н/о +3.1 0.0 80 -3 -3 1012.4 1011.6 +2.4 +6.3
07 16.06 СЗ 8
{11}
н/о н/о +3.5 -0.1 77 -3 -3 1012.3 1011.5
08 16.06 СЗ 8
{10}
н/о н/о +3.5 +0.2 79 -3 -3 1012.1 1011.3
09 16.06 СЗ 9
{11}
н/о н/о +3.4 +0.1 79 -3 -3 1012.3 1011.5
10 16.06 СЗ 8
{11}
н/о н/о +3.1 0.0 80 -3 -3 1012.3 1011.5
11 16.06 СЗ 9
{13}
н/о н/о +3.2 -0.1 79 -4 -4 1012.1 1011.3
12 16.06 СЗ 9
{13}
н/о н/о +3.1 0.0 80 -4 -4 1012.1 1011.3
13 16.06 СЗ 10
{13}
н/о н/о +2.8 -0.3 80 -4 -4 1011.9 1011.1
14 16.06 СЗ 9
{13}
н/о н/о +2.8 -0.3 80 -4 -4 1012.0 1011.2
15 16.06 СЗ 8
{12}
н/о н/о +3.0 -0.1 80 -3 -3 1011.8 1011.0
16 16.06 СЗ 8
{12}
н/о н/о +3.2 +0.1 80 -3 -3 1011.8 1011.0
17 16.06 СЗ 8
{10}
н/о н/о +3.0 +0.2 82 -4 -4 1011.8 1011.0
18 16.06 СЗ 7
{13}
н/о н/о +3.2 +0.3 81 -3 -3 1011.5 1010.7 +2.7 +4.1
19 16.06 СЗ 9
{11}
н/о н/о +2.4 +0.2 85 -5 -5 1011.0 1010.2
20 16.06 СЗ 9
{12}
н/о н/о +2.1 0.0 86 -5 -5 1010.8 1010.0
21 16.06 СЗ 9
{13}
н/о н/о +2.0 -0.7 82 -5 -5 1010.6 1009.8
22 16.06 СЗ 7
{10}
н/о н/о +1.8 -0.8 83 -5 -5 1010.5 1009.7
23 16.06 СЗ 8
{10}
н/о н/о +1.9 -1.3 79 -5 -5 1010.2 1009.4
00 17.06 СЗ 4
{13}
н/о н/о +2.1 -1.7 76 -3 -3 1010.3 1009.5
01 17.06 СЗ 3
{7}
н/о н/о +2.1 -1.0 80 -2 -2 1010.2 1009.4
02 17.06 З 1
{4}
н/о н/о +2.4 -1.4 76 +1 +1 1010.1 1009.3
03 17.06 СЗ 3
{4}
н/о н/о +2.3 -0.9 79 -2 -2 1009.9 1009.1
05 17.06 С 2
{4}
н/о н/о +3.5 -1.6 69 +1 +1 1009.5 1008.7
06 17.06 С 4 н/о н/о +3.6 -2.1 66 -1 -1 1009.4 1008.6
07 17.06
{5}
н/о н/о +3.9 -0.9 71 1009.4 1008.6
08 17.06 С 4
{5}
н/о н/о +4.4 -1.8 64 +1 +1 1009.4 1008.6
09 17.06 С 3
{5}
н/о н/о +4.8 -2.0 61 +2 +2 1009.6 1008.8
10 17.06 С 4
{6}
н/о н/о +5.0 -2.3 59 +1 +1 1009.8 1009.0
11 17.06 С 5
{6}
н/о н/о +5.3 -2.0 59 +1 +1 1009.8 1009.0
12 17.06 С 5
{7}
н/о н/о +4.8 -1.2 65 0 0 1010.0 1009.2
13 17.06 С 5
{7}
н/о н/о +5.3 -1.6 61 +1 +1 1010.1 1009.3
14 17.06 С 6
{7}
н/о н/о +5.5 -1.4 61 +1 +1 1009.9 1009.1
15 17.06 С 6
{7}
н/о н/о +4.9 -0.7 67 0 0 1010.1 1009.3
16 17.06 С 2
{7}
н/о н/о +4.5 -0.7 69 +2 +2 1010.3 1009.5
17 17.06
{5}
н/о н/о +5.0 -0.4 68 1010.2 1009.4
18 17.06 СВ 2
{7}
н/о н/о +5.3 +0.5 71 +3 +3 1010.2 1009.4 +3.6 +5.9
19 17.06 С 5
{5}
н/о н/о +5.3 -0.7 65 +1 +1 1010.1 1009.3
20 17.06 С 4
{6}
н/о н/о +5.7 -2.4 56 +2 +2 1010.1 1009.3
21 17.06 СЗ 1
{4}
н/о н/о +5.0 -0.8 66 +4 +4 1010.3 1009.5
22 17.06
{3}
н/о н/о +4.9 -0.1 70 1010.4 1009.6
23 17.06 Ю 1
{2}
н/о н/о +4.5 +0.7 76 +3 +3 1010.3 1009.5
00 18.06 СЗ 1
{6}
н/о н/о +4.5 -0.1 72 +3 +3 1010.1 1009.3
01 18.06 З 1
{3}
н/о н/о +3.9 +1.0 81 +3 +3 1010.0 1009.2
02 18.06 СЗ 4
{5}
н/о н/о +3.7 +0.9 82 -1 -1 1009.7 1008.9
03 18.06 СЗ 3
{5}
н/о н/о +4.2 +0.9 79 +1 +1 1009.7 1008.8
05 18.06 СЗ 3
{4}
н/о н/о +3.9 +1.1 82 0 0 1009.5 1008.7
06 18.06 СЗ 3
{5}
н/о н/о +4.9 +0.5 73 +2 +2 1009.5 1008.7 +3.5 +6.1
07 18.06 СЗ 2
{4}
н/о н/о +5.9 -0.1 65 +4 +4 1009.4 1008.6
08 18.06 СЗ 3
{4}
н/о н/о +6.5 -0.9 59 +4 +4 1009.3 1008.5
09 18.06 СЗ 4
{6}
н/о н/о +5.9 +1.5 73 +2 +2 1009.3 1008.5
10 18.06 СЗ 4
{6}
н/о н/о +6.1 +0.5 67 +3 +3 1009.3 1008.5

 

Местоположение метеостанции Акселойа (Норвегия): широта 77.68 долгота 14.78 высота над уровнем моря 6 м.

В архиве по умолчанию представлена погода на Акселойа за последнюю неделю. Архивные данные за месяц целиком и за предыдущие месяцы, начиная с января 2011 года, Вы можете получить, выбрав интересующий диапазон дат из раскрывающегося списка и нажав кнопку "Ввод!".


*Определитесь, кто Вы:
робот инопланетянин человек

Внимание! Время в таблицах - всемирное. Для получения местного времени необходимо прибавить поправку, которая равна 1 ч.

Смотрите также архив погоды в соседних городах и на ближайших метеорологических станциях:

Погода в Баренцбурге (Шпицберген, Россия) (45 км)
Погода в Свальбард аэропорту (Норвегия) (66 км)
Погода на Хорнсунне (Норвегия) (78 км)
Погода в Пирамиде (Норвегия) (115 км)
Погода на Сёркаппёйа (Норвегия) (141 км)
Погода в Ню-Олесунн (Норвегия) (152 км)
Погода на Эдже (Норвегия) (197 км)
Погода на Верлегенхукен (Норвегия) (265 км)
Погода в Хопене (Норвегия) (285 км)
Погода на Конгсёйа (Норвегия) (346 км)

Пояснения к столбцам:

Ветер - указаны скорость ветра в м/с - средняя за 10 мин, порывы в срок и между сроками (в фигурных скобках) и направление, откуда дует ветер: С - северный, СВ - северо-восточный, В - восточный, ЮВ - юго-восточный, Ю - южный, ЮЗ - юго-западный, З - западный, СЗ - северо-западный.
Видимость - горизонтальная дальность видимости в метрах или километрах. При видимости от 1 до 10 км при отсутствии осадков обычно наблюдается дымка, при ухудшении видимости до 1 км и менее - туман. В сухую погоду видимость может ухудшаться дымом, пылью или мглою.
Явления - указаны атмосферные явления, наблюдавшиеся в срок или в последний час перед сроком; фигурными скобками обозначены явления, наблюдавшиеся между сроками (за 1-3 часа до срока); квадратными скобками обозначены град или гололедные отложения с указанием их диаметра в мм.
Облачность - указаны через наклонную черту общая и нижняя облачность в баллах и высота нижней границы облаков в метрах; квадратными скобками обозначены формы облаков: Ci - перистые, Cs - перисто-слоистые, Cc - перисто-кучевые, Ac - высококучевые, As - высокослоистые, Sc - слоисто-кучевые, Ns - слоисто-дождевые, Cu - кучевые, Cb - кучево-дождевые. Подробнее классификацию облаков см. в Атласе облаков (PDF).
T - Температура воздуха - температура, измеренная на высоте 2 м над землей.
Td - Температура точки росы - температура, при понижении до которой содержащийся в воздухе водяной пар достигнет насыщения.
f - Относительная влажность воздуха - влажноcть воздуха, измеренная на высоте 2 м над землей.
Te - Эффективная температура - температура, которую ощущает одетый по сезону человек в тени. Характеристика душности погоды. При расчете учитывается влияние влажности воздуха и скорости ветра на теплоощущения человека.
Tes - Эффективная температура на солнце - температура, которую ощущает человек, с поправкой на солнечный нагрев. Характеристика знойности погоды. Зависит от высоты солнца над горизонтом, облачности и скорости ветра. Ночью, в пасмурную погоду, а также при ветре 12 м/с и более поправка равна нулю.
P - Атмосферное давление - приведенное к уровню моря атмосферное давление.
Po - Атмосферное давление - измеренное на уровне метеостанции атмосферное давление.
Tmin - Минимальная температура - минимум температуры воздуха на высоте 2 м над землей.
Tmax - Максимальная температура - максимум температуры воздуха на высоте 2 м над землей.
R - Количество осадков - Количество выпавших осадков за период времени, мм. При наведении курсора мыши на число - период времени, за который выпало указанное количество осадков.
R24 - Количество осадков - Количество выпавших осадков за 24 часа, мм.
S - Снежный покров - Высота снежного покрова, см. При наведении курсора мыши на число - состояние снежного покрова и степень покрытия местности в баллах.